FW3224 Weather Reports


Display with metric or nautical units.
time (UTC)temp
F
wind
direction
speed
MPH
gust
MPH
rain 1hr
in
rain 24hr
in
rain mn
in
humidity
%
barometer
mb
20260905010555 79 213 4.0 9.0 0.00 0.00 0.00 39 1012.7
20260905005552 77 297 7.0 14.0 0.00 0.00 0.00 40 1013.1
20260905005052 77 267 6.0 12.0 0.00 0.00 0.00 40 1013.1
20260905004550 77 273 6.0 11.0 0.00 0.00 0.00 40 1013.3
20260905004048 76 238 6.0 13.0 0.00 0.00 0.00 41 1013.5
20260905003547 76 258 4.0 14.0 0.00 0.00 0.00 41 1013.7
20260905003046 76 297 6.0 10.0 0.00 0.00 0.00 41 1013.8
20260905002545 76 279 5.0 10.0 0.00 0.00 0.00 42 1013.9
20260905002043 75 274 4.0 13.0 0.00 0.00 0.00 42 1014.0
20260905001542 75 264 5.0 11.0 0.00 0.00 0.00 41 1014.0
20260905001041 75 259 5.0 11.0 0.00 0.00 0.00 41 1014.1
20260905000542 75 303 4.0 13.0 0.00 0.00 0.00 41 1014.3
20260905000037 75 232 5.0 13.0 0.00 0.00 0.00 40 1014.4
20260904235535 74 250 3.0 10.0 0.00 0.00 0.00 42 1014.4
20260904235034 74 264 5.0 10.0 0.00 0.00 0.00 43 1014.5
20260904234533 74 275 4.0 13.0 0.00 0.00 0.00 43 1014.7
20260904234036 73 255 6.0 13.0 0.00 0.00 0.00 43 1014.8
20260904233530 73 227 7.0 13.0 0.00 0.00 0.00 44 1014.9
20260904233029 73 284 3.0 8.0 0.00 0.00 0.00 48 1014.9
20260904232528 72 267 4.0 8.0 0.00 0.00 0.00 47 1015.0
20260904232025 71 273 3.0 8.0 0.00 0.00 0.00 49 1015.1
20260904231524 71 319 3.0 9.0 0.00 0.00 0.00 51 1015.2
20260904231023 70 257 4.0 9.0 0.00 0.00 0.00 52 1015.3
20260904230524 70 291 3.0 9.0 0.00 0.00 0.00 52 1015.4
20260904230020 70 238 4.0 9.0 0.00 0.00 0.00 51 1015.5
20260904225521 70 302 4.0 9.0 0.00 0.00 0.00 51 1015.5
20260904225019 70 290 2.0 9.0 0.00 0.00 0.00 51 1015.6
20260904224520 69 281 3.0 9.0 0.00 0.00 0.00 50 1015.6
20260904224018 69 304 4.0 9.0 0.00 0.00 0.00 51 1015.7
20260904223516 69 279 3.0 7.0 0.00 0.00 0.00 51 1015.7
20260904223016 69 275 4.0 7.0 0.00 0.00 0.00 51 1015.7
20260904222515 69 297 2.0 8.0 0.00 0.00 0.00 52 1015.7
20260904222015 69 246 3.0 8.0 0.00 0.00 0.00 52 1015.7
20260904221514 68 276 0.0 6.0 0.00 0.00 0.00 53 1015.7
20260904221013 68 319 1.0 6.0 0.00 0.00 0.00 54 1015.7
20260904220512 68 292 2.0 5.0 0.00 0.00 0.00 54 1015.7
20260904220011 68 296 2.0 6.0 0.00 0.00 0.00 54 1015.9
20260904215510 67 271 2.0 6.0 0.00 0.00 0.00 54 1015.9
20260904215010 67 282 2.0 7.0 0.00 0.00 0.00 54 1016.0
20260904214510 67 263 3.0 8.0 0.00 0.00 0.00 54 1016.0
20260904214010 67 298 4.0 11.0 0.00 0.00 0.00 52 1016.0
20260904213510 67 288 4.0 11.0 0.00 0.00 0.00 52 1016.0
20260904213009 67 279 4.0 10.0 0.00 0.00 0.00 52 1015.9
20260904212509 67 307 3.0 11.0 0.00 0.00 0.00 52 1015.7
20260904212007 67 290 3.0 11.0 0.00 0.00 0.00 52 1015.7
20260904211508 67 286 3.0 9.0 0.00 0.00 0.00 52 1015.8
20260904211008 66 269 4.0 11.0 0.00 0.00 0.00 52 1015.8
20260904210505 66 251 4.0 10.0 0.00 0.00 0.00 53 1015.7
20260904210010 66 265 4.0 10.0 0.00 0.00 0.00 53 1015.7
20260904205504 66 275 5.0 10.0 0.00 0.00 0.00 53 1015.6
20260904205002 66 232 5.0 10.0 0.00 0.00 0.00 53 1015.7
20260904204501 66 279 6.0 11.0 0.00 0.00 0.00 53 1015.7
20260904204100 65 238 4.0 12.0 0.00 0.00 0.00 54 1015.6
20260904203559 65 296 6.0 12.0 0.00 0.00 0.00 54 1015.5
20260904203100 65 255 5.0 9.0 0.00 0.00 0.00 56 1015.6
20260904202558 65 297 3.0 10.0 0.00 0.00 0.00 56 1015.5
20260904202057 65 280 5.0 11.0 0.00 0.00 0.00 56 1015.5
20260904201558 65 263 6.0 11.0 0.00 0.00 0.00 56 1015.6
20260904201055 64 250 6.0 10.0 0.00 0.00 0.00 56 1015.6
20260904200554 64 280 5.0 10.0 0.00 0.00 0.00 57 1015.7
20260904200110 64 259 6.0 11.0 0.00 0.00 0.00 58 1015.6
20260904195555 63 274 5.0 11.0 0.00 0.00 0.00 60 1015.8
20260904195049 62 261 5.0 9.0 0.00 0.00 0.00 61 1015.8
20260904194551 62 277 4.0 9.0 0.00 0.00 0.00 63 1015.9
20260904194048 61 255 4.0 8.0 0.00 0.00 0.00 64 1015.9
20260904193548 61 273 4.0 8.0 0.00 0.00 0.00 65 1016.0
20260904193048 60 281 2.0 8.0 0.00 0.00 0.00 66 1016.0
20260904192548 60 289 3.0 8.0 0.00 0.00 0.00 66 1016.0
20260904192047 60 294 2.0 6.0 0.00 0.00 0.00 65 1016.0
20260904191547 61 287 3.0 6.0 0.00 0.00 0.00 65 1016.0
20260904191047 60 285 2.0 5.0 0.00 0.00 0.00 66 1016.1
20260904190546 60 289 2.0 4.0 0.00 0.00 0.00 66 1016.1
20260904190050 60 268 2.0 4.0 0.00 0.00 0.00 66 1016.0
20260904185546 60 279 2.0 4.0 0.00 0.00 0.00 66 1015.9
20260904185046 60 275 2.0 7.0 0.00 0.00 0.00 66 1015.8
20260904184545 60 284 2.0 8.0 0.00 0.00 0.00 66 1015.8
20260904184045 60 279 3.0 10.0 0.00 0.00 0.00 66 1015.8
20260904183547 60 281 3.0 10.0 0.00 0.00 0.00 66 1015.8
20260904183044 60 286 2.0 9.0 0.00 0.00 0.00 66 1015.7
20260904182548 60 269 4.0 10.0 0.00 0.00 0.00 66 1015.7
20260904182043 60 326 5.0 10.0 0.00 0.00 0.00 66 1015.7
20260904181547 60 315 5.0 10.0 0.00 0.00 0.00 66 1015.7
20260904181043 60 254 5.0 10.0 0.00 0.00 0.00 66 1015.6
20260904180541 60 290 6.0 10.0 0.00 0.00 0.00 66 1015.7
20260904180047 60 304 3.0 9.0 0.00 0.00 0.00 67 1015.8
20260904175540 59 311 3.0 8.0 0.00 0.00 0.00 67 1015.8
20260904175040 59 267 3.0 8.0 0.00 0.00 0.00 67 1015.8
20260904174541 59 262 3.0 8.0 0.00 0.00 0.00 67 1015.8
20260904174040 59 267 3.0 9.0 0.00 0.00 0.00 67 1015.9
20260904173539 59 284 4.0 9.0 0.00 0.00 0.00 67 1015.8
20260904173054 59 283 3.0 7.0 0.00 0.00 0.00 67 1015.9
20260904172538 59 266 4.0 10.0 0.00 0.00 0.00 67 1016.0
20260904172038 59 281 3.0 10.0 0.00 0.00 0.00 67 1015.9
20260904171544 59 288 4.0 10.0 0.00 0.00 0.00 67 1015.8
20260904171036 59 275 3.0 10.0 0.00 0.00 0.00 67 1015.9
20260904170535 59 315 3.0 8.0 0.00 0.00 0.00 67 1015.9
20260904170039 59 305 3.0 8.0 0.00 0.00 0.00 66 1016.0
20260904165538 59 273 3.0 8.0 0.00 0.00 0.00 66 1016.1
20260904165033 60 324 4.0 8.0 0.00 0.00 0.00 65 1016.2
20260904164532 60 300 4.0 7.0 0.00 0.00 0.00 65 1016.2
20260904164031 60 293 4.0 6.0 0.00 0.00 0.00 64 1016.3
20260904163530 60 323 3.0 7.0 0.00 0.00 0.00 64 1016.3
20260904163030 60 294 2.0 4.0 0.00 0.00 0.00 63 1016.5
20260904162529 61 301 2.0 5.0 0.00 0.00 0.00 62 1016.5
20260904162027 61 310 3.0 7.0 0.00 0.00 0.00 62 1016.6
20260904161526 61 266 2.0 7.0 0.00 0.00 0.00 62 1016.8
20260904161028 61 277 3.0 5.0 0.00 0.00 0.00 61 1016.8
20260904160526 61 285 2.0 5.0 0.00 0.00 0.00 61 1016.9
20260904160028 62 327 3.0 8.0 0.00 0.00 0.00 61 1016.9
20260904155523 61 295 4.0 8.0 0.00 0.00 0.00 61 1017.1
20260904155022 61 307 3.0 7.0 0.00 0.00 0.00 62 1017.1
20260904154521 61 306 3.0 7.0 0.00 0.00 0.00 62 1017.1
20260904154020 61 293 3.0 5.0 0.00 0.00 0.00 63 1017.3
20260904153520 60 300 3.0 5.0 0.00 0.00 0.00 64 1017.4
20260904153019 60 303 3.0 5.0 0.00 0.00 0.00 65 1017.5
20260904152519 60 288 3.0 5.0 0.00 0.00 0.00 65 1017.6
20260904152018 60 299 3.0 5.0 0.00 0.00 0.00 66 1017.6
20260904151517 60 302 3.0 5.0 0.00 0.00 0.00 66 1017.6
20260904151017 60 297 3.0 6.0 0.00 0.00 0.00 66 1017.6
20260904150517 60 297 3.0 6.0 0.00 0.00 0.00 66 1017.6
20260904150016 60 281 3.0 4.0 0.00 0.00 0.00 67 1017.6
20260904145515 61 281 3.0 6.0 0.00 0.00 0.00 67 1017.5
20260904145014 61 277 3.0 6.0 0.00 0.00 0.00 66 1017.6
20260904144515 61 284 3.0 6.0 0.00 0.00 0.00 66 1017.7
20260904144013 61 290 3.0 5.0 0.00 0.00 0.00 66 1017.7
20260904143514 61 305 2.0 5.0 0.00 0.00 0.00 67 1017.8
20260904143017 61 329 3.0 8.0 0.00 0.00 0.00 68 1017.8
20260904142511 61 316 4.0 8.0 0.00 0.00 0.00 69 1017.7
20260904142013 61 311 3.0 5.0 0.00 0.00 0.00 71 1017.7
20260904141511 61 315 3.0 5.0 0.00 0.00 0.00 72 1017.7
20260904141009 61 317 1.0 4.0 0.00 0.00 0.00 72 1017.8
20260904140508 61 312 2.0 5.0 0.00 0.00 0.00 71 1017.8
20260904140008 61 314 2.0 5.0 0.00 0.00 0.00 71 1017.7
20260904135507 62 325 2.0 5.0 0.00 0.00 0.00 71 1017.7
20260904135006 62 314 2.0 5.0 0.00 0.00 0.00 70 1017.7
20260904134513 63 306 3.0 5.0 0.00 0.00 0.00 68 1017.7
20260904134006 63 286 2.0 3.0 0.00 0.00 0.00 68 1017.7
20260904133507 62 297 1.0 3.0 0.00 0.00 0.00 68 1017.8
20260904133009 62 297 1.0 3.0 0.00 0.00 0.00 69 1017.8
20260904132506 62 297 1.0 3.0 0.00 0.00 0.00 71 1017.8
20260904132107 61 279 2.0 4.0 0.00 0.00 0.00 73 1017.8
20260904131505 60 292 2.0 3.0 0.00 0.00 0.00 77 1017.8
20260904131005 60 279 0.0 0.0 0.00 0.00 0.00 79 1017.8
20260904130507 60 279 0.0 2.0 0.00 0.00 0.00 79 1017.8
20260904130004 60 279 0.0 5.0 0.00 0.00 0.00 78 1017.8
20260904125505 60 279 1.0 5.0 0.00 0.00 0.00 78 1017.9
20260904125004 61 286 3.0 6.0 0.00 0.00 0.00 76 1017.9
20260904124504 61 321 2.0 6.0 0.00 0.00 0.00 76 1017.8
20260904124003 60 273 0.0 0.0 0.00 0.00 0.00 78 1017.8
20260904123503 60 273 0.0 0.0 0.00 0.00 0.00 78 1017.9
20260904123003 60 273 0.0 0.0 0.00 0.00 0.00 78 1017.9
20260904122503 61 273 0.0 3.0 0.00 0.00 0.00 77 1018.1
20260904122005 61 273 0.0 3.0 0.00 0.00 0.00 76 1018.1
20260904121503 61 268 2.0 4.0 0.00 0.00 0.00 75 1018.1
20260904121002 62 323 1.0 4.0 0.00 0.00 0.00 75 1018.1
20260904120502 62 325 2.0 4.0 0.00 0.00 0.00 76 1018.2
20260904120004 61 309 2.0 4.0 0.00 0.00 0.00 76 1018.2
20260904115502 61 300 2.0 5.0 0.00 0.00 0.00 77 1018.2
20260904115003 61 296 2.0 5.0 0.00 0.00 0.00 78 1018.2
20260904114502 61 279 2.0 4.0 0.00 0.00 0.00 77 1018.2
20260904114003 61 286 2.0 4.0 0.00 0.00 0.00 77 1018.3
20260904113501 62 286 2.0 5.0 0.00 0.00 0.00 76 1018.4
20260904113101 62 292 2.0 8.0 0.00 0.00 0.00 75 1018.3
20260904112601 62 269 3.0 8.0 0.00 0.00 0.00 75 1018.4
20260904112101 62 284 3.0 8.0 0.00 0.00 0.00 76 1018.3
20260904111600 62 309 2.0 5.0 0.00 0.00 0.00 76 1018.2
20260904111059 62 265 1.0 6.0 0.00 0.00 0.00 76 1018.2
20260904110559 62 259 2.0 5.0 0.00 0.00 0.00 76 1018.2
20260904110059 62 289 2.0 6.0 0.00 0.00 0.00 75 1018.1
20260904105559 62 282 2.0 8.0 0.00 0.00 0.00 75 1018.1
20260904105101 62 254 4.0 8.0 0.00 0.00 0.00 75 1018.0
20260904104600 62 315 2.0 8.0 0.00 0.00 0.00 75 1018.0
20260904104059 62 285 2.0 4.0 0.00 0.00 0.00 75 1017.9
20260904103559 62 263 2.0 4.0 0.00 0.00 0.00 76 1017.8
20260904103059 62 313 1.0 6.0 0.00 0.00 0.00 75 1017.7
20260904102602 62 338 2.0 6.0 0.00 0.00 0.00 75 1017.7
20260904102100 62 333 1.0 5.0 0.00 0.00 0.00 75 1017.6
20260904101559 62 324 2.0 5.0 0.00 0.00 0.00 75 1017.6
20260904101058 62 316 2.0 5.0 0.00 0.00 0.00 76 1017.5
20260904100557 62 320 1.0 4.0 0.00 0.00 0.00 76 1017.4
20260904100105 62 325 0.0 3.0 0.00 0.00 0.00 75 1017.4
20260904095557 62 13 0.0 4.0 0.00 0.00 0.00 75 1017.3
20260904095057 62 336 0.0 4.0 0.00 0.00 0.00 75 1017.4
20260904094602 62 254 0.0 3.0 0.00 0.00 0.00 75 1017.3
20260904094057 62 257 1.0 5.0 0.00 0.00 0.00 74 1017.3
20260904093558 62 263 1.0 4.0 0.00 0.00 0.00 74 1017.2
20260904093057 62 261 1.0 6.0 0.00 0.00 0.00 74 1017.2
20260904092556 62 344 1.0 9.0 0.00 0.00 0.00 74 1017.1
20260904092056 62 279 3.0 8.0 0.00 0.00 0.00 75 1016.9
20260904091556 62 248 1.0 6.0 0.00 0.00 0.00 75 1017.0
20260904091057 62 314 0.0 6.0 0.00 0.00 0.00 75 1017.0
20260904090556 62 303 1.0 6.0 0.00 0.00 0.00 75 1016.9
20260904090105 62 298 1.0 3.0 0.00 0.00 0.00 75 1016.8
20260904085556 62 17 1.0 4.0 0.00 0.00 0.00 75 1016.9
20260904085056 62 334 0.0 4.0 0.00 0.00 0.00 75 1016.9
20260904084558 62 301 1.0 4.0 0.00 0.00 0.00 75 1016.9
20260904084054 62 337 0.0 5.0 0.00 0.00 0.00 76 1016.8
20260904083554 62 316 1.0 5.0 0.00 0.00 0.00 76 1016.8
20260904083137 62 319 0.0 3.0 0.00 0.00 0.00 76 1016.9
20260904082554 62 32 1.0 4.0 0.00 0.00 0.00 76 1016.8
20260904082053 62 284 0.0 4.0 0.00 0.00 0.00 76 1016.8
20260904081554 62 30 1.0 3.0 0.00 0.00 0.00 76 1016.7
20260904081053 62 5 0.0 4.0 0.00 0.00 0.00 76 1016.6
20260904080552 62 13 0.0 5.0 0.00 0.00 0.00 76 1016.5
20260904080052 62 317 1.0 7.0 0.00 0.00 0.00 76 1016.4
20260904075552 62 328 1.0 7.0 0.00 0.00 0.00 76 1016.4
20260904075052 62 51 1.0 5.0 0.00 0.00 0.00 75 1016.4
20260904074551 63 23 1.0 5.0 0.00 0.00 0.00 75 1016.5
20260904074052 63 153 0.0 3.0 0.00 0.00 0.00 74 1016.4
20260904073552 63 342 0.0 5.0 0.00 0.00 0.00 74 1016.4
20260904073058 63 141 1.0 5.0 0.00 0.00 0.00 73 1016.3
20260904072550 64 325 1.0 5.0 0.00 0.00 0.00 73 1016.3
20260904072051 64 132 2.0 5.0 0.00 0.00 0.00 73 1016.4
20260904071616 64 155 1.0 7.0 0.00 0.00 0.00 72 1016.3
20260904071050 64 71 2.0 7.0 0.00 0.00 0.00 72 1016.2
20260904070549 64 57 2.0 7.0 0.00 0.00 0.00 71 1016.1
20260904070111 65 60 1.0 6.0 0.00 0.00 0.00 71 1016.2
20260904065549 65 65 2.0 6.0 0.00 0.00 0.00 70 1016.2
20260904065048 65 63 1.0 6.0 0.00 0.00 0.00 70 1016.1
20260904064549 65 79 2.0 4.0 0.00 0.00 0.00 69 1016.2
20260904064051 66 55 1.0 4.0 0.00 0.00 0.00 68 1016.2
20260904063548 66 51 1.0 5.0 0.00 0.00 0.00 67 1016.2
20260904063100 66 73 2.0 5.0 0.00 0.00 0.00 67 1016.2
20260904062552 67 88 1.0 4.0 0.00 0.00 0.00 66 1016.2
20260904062047 67 65 1.0 3.0 0.00 0.00 0.00 65 1016.2
20260904061547 67 60 0.0 5.0 0.00 0.00 0.00 65 1016.2
20260904061048 67 217 1.0 5.0 0.00 0.00 0.00 65 1016.2
20260904060547 68 59 1.0 4.0 0.00 0.00 0.00 64 1016.2
20260904060046 68 64 1.0 5.0 0.00 0.00 0.00 63 1016.2
20260904055546 68 88 1.0 5.0 0.00 0.00 0.00 62 1016.2
20260904055045 68 71 1.0 7.0 0.00 0.00 0.00 61 1016.3
20260904054549 69 67 2.0 7.0 0.00 0.00 0.00 60 1016.3
20260904054045 69 114 1.0 3.0 0.00 0.00 0.00 60 1016.4
20260904053544 69 121 0.0 5.0 0.00 0.00 0.00 60 1016.3
20260904053056 69 51 1.0 5.0 0.00 0.00 0.00 59 1016.4
20260904052543 69 76 1.0 9.0 0.00 0.00 0.00 58 1016.5
20260904052043 69 67 2.0 9.0 0.00 0.00 0.00 58 1016.5
20260904051544 70 103 2.0 9.0 0.00 0.00 0.00 55 1016.6
20260904051041 71 69 1.0 4.0 0.00 0.00 0.00 55 1016.7
20260904050541 71 32 1.0 4.0 0.00 0.00 0.00 54 1016.6
20260904050043 71 59 2.0 4.0 0.00 0.00 0.00 53 1016.6
20260904045541 72 43 1.0 6.0 0.00 0.00 0.00 53 1016.6
20260904045040 71 346 1.0 6.0 0.00 0.00 0.00 52 1016.7
20260904044539 72 82 2.0 7.0 0.00 0.00 0.00 51 1016.8
20260904044041 73 63 1.0 6.0 0.00 0.00 0.00 50 1016.9
20260904043538 74 82 2.0 6.0 0.00 0.00 0.00 47 1016.9
20260904043044 74 192 1.0 11.0 0.00 0.00 0.00 42 1017.0
20260904042542 74 242 3.0 11.0 0.00 0.00 0.00 41 1017.0
20260904042037 74 178 2.0 8.0 0.00 0.00 0.00 43 1017.0
20260904041537 74 300 3.0 9.0 0.00 0.00 0.00 44 1017.0
20260904041037 74 235 4.0 10.0 0.00 0.00 0.00 43 1017.0
20260904040534 74 291 4.0 10.0 0.00 0.00 0.00 43 1017.1
20260904040039 74 255 4.0 8.0 0.00 0.00 0.00 43 1017.2
20260904035534 73 101 1.0 11.0 0.00 0.00 0.00 43 1017.2
20260904035031 73 306 3.0 11.0 0.00 0.00 0.00 43 1017.3
20260904034531 72 246 1.0 12.0 0.00 0.00 0.00 45 1017.3
20260904034029 73 223 7.0 12.0 0.00 0.00 0.00 43 1017.4
20260904033529 73 329 2.0 10.0 0.00 0.00 0.00 45 1017.5
20260904033030 73 252 5.0 11.0 0.00 0.00 0.00 44 1017.6
20260904032528 73 292 4.0 12.0 0.00 0.00 0.00 44 1017.6
20260904032027 73 249 5.0 12.0 0.00 0.00 0.00 43 1017.7
20260904031535 72 15 3.0 10.0 0.00 0.00 0.00 44 1017.7
20260904031025 72 242 4.0 10.0 0.00 0.00 0.00 44 1017.6
20260904030524 71 265 3.0 10.0 0.00 0.00 0.00 45 1017.7
20260904030025 71 237 4.0 10.0 0.00 0.00 0.00 44 1017.9
20260904025524 71 273 4.0 11.0 0.00 0.00 0.00 45 1018.0
20260904025022 72 275 6.0 11.0 0.00 0.00 0.00 43 1018.0
20260904024522 72 5 2.0 8.0 0.00 0.00 0.00 44 1018.2
20260904024023 72 325 3.0 9.0 0.00 0.00 0.00 44 1018.4
20260904023519 71 286 1.0 9.0 0.00 0.00 0.00 46 1018.5
20260904023019 70 287 3.0 10.0 0.00 0.00 0.00 45 1018.5
20260904022518 70 253 4.0 10.0 0.00 0.00 0.00 45 1018.6
20260904022019 70 240 2.0 8.0 0.00 0.00 0.00 46 1018.8
20260904021523 70 178 1.0 9.0 0.00 0.00 0.00 46 1018.9
20260904021015 70 171 1.0 10.0 0.00 0.00 0.00 45 1019.0
20260904020515 70 281 2.0 10.0 0.00 0.00 0.00 49 1019.1
20260904020017 70 308 5.0 9.0 0.00 0.00 0.00 46 1019.2
20260904015518 69 84 1.0 9.0 0.00 0.00 0.00 48 1019.4
20260904015013 69 216 2.0 9.0 0.00 0.00 0.00 48 1019.5
20260904014513 69 236 2.0 7.0 0.00 0.00 0.00 49 1019.5
20260904014014 69 240 2.0 6.0 0.00 0.00 0.00 49 1019.6
20260904013510 69 171 2.0 7.0 0.00 0.00 0.00 49 1019.5
20260904013012 68 238 3.0 7.0 0.00 0.00 0.00 50 1019.5
20260904012509 68 204 3.0 8.0 0.00 0.00 0.00 49 1019.7
20260904012009 68 284 3.0 8.0 0.00 0.00 0.00 49 1019.8
20260904011508 68 228 1.0 6.0 0.00 0.00 0.00 50 1019.8
20260904011007 68 219 3.0 6.0 0.00 0.00 0.00 50 1019.9